Tracking 18793 objects as of 23-September-2017
HD Live streaming from Space Station
objects crossing your sky now

METEOR 1-26

Track METEOR 1-26 now!
10-day predictions
METEOR 1-26 is classified as:


NORAD ID: 9481
Int'l Code: 1976-102A
Perigee: 852.1 km
Apogee: 882.6 km
Inclination: 81.2 °
Period: 102.1 minutes
Semi major axis: 7238 km
RCS: 4.3206 m2 (large)
Launch date: October 15, 1976
Source: Commonwealth of Independent States (former USSR) (CIS)
Launch site: PLESETSK MISSILE AND SPACE COMPLEX (PKMTR)
aabbcc
Your satellite tracking list
Your tracking list is empty





NASA's NSSDC Master Catalog

Two Line Element Set (TLE):
1  9481U 76102A   17265.56505217 +.00000150 +00000-0 +78329-4 0  9999
2  9481 081.2155 277.6957 0021067 287.4722 072.4146 14.09762991104206
Source of the keplerian elements: AFSPC